P/2020 K9 ( Lemmon-PanSTARRS )

Japanese version
Home page
Updated on September 6, 2020

---------------------------------------------------------------------

* Profile

Discovery Date May 22 and 26, 2020
Magnitude 20.5 mag and 19.5 mag
Discoverer Mt. Lemmon Survey, Pan-STARRS 1 telescope (Haleakala)

* Orbital Elements

Epoch 2021 Jan. 26.0 TT = JDT 2459240.5
T 2021 Feb. 11.84063 TT                                 Rudenko
q   2.8493543            (2000.0)            P               Q
n   0.11449430     Peri.  196.88360     +0.99292428     -0.07289248
a   4.2002982      Node   166.23891     +0.07455851     +0.99711282
e   0.3216305      Incl.   23.20949     -0.09242514     +0.02127706
P   8.61
From 66 observations 2020 May 22-Aug. 20, mean residual 0".5.

* Magnitudes Graph

        m1 = 12.0 + 5 log d + 10.0 log r

---------------------------------------------------------------------

The orbital elements are published on M.P.E.C. 2020-R04.
The magnitudes graphs are made with Comet for Windows.

---------------------------------------------------------------------

Copyright(C) Seiichi Yoshida (comet@aerith.net). All rights reserved.